CAPE
0 0 0 0 0 1 0 0 0 0 0 0 0 0 0 0 0 0 0 0 0 0 0 0 0 0 0 0 0 0 0 0 0 0 0 0 0 0 0 0 0 0 0 0 0
0 0 0 1 1 0 0 0 0 0 0 0 0 0 0 0 0 0 0 0 0 0 0 0 0 0 0 0 0 0 0 0 0 0 0 0 0 0 0 0 0 0 0 0 0
0 0 0 0 0 0 0 0 0 0 0 0 0 0 0 0 0 0 0 0 0 0 0 0 0 0 0 0 0 0 0 0 0 0 0 0 0 0 0 0 0 0 0 0 0
0 0 0 0 0 0 0 0 0 0 0 0 0 0 0 0 0 0 0 0 0 0 0 0 0 0 0 0 0 0 0 0 0 0 0 0 0 0 0 0 0 0 0 0 0
0 0 0 0 1 0 0 0 0 0 0 0 0 1 0 0 0 0 0 0 0 0 0 0 0 0 0 0 0 0 0 0 0 0 0 0 0 0 0 0 0 0 0 0 0
0 0 0 0 0 0 0 0 0 0 0 0 0 2 0 0 0 0 0 0 0 0 0 0 0 0 0 0 0 0 0 0 0 0 0 0 0 0 0 0 0 0 0 0 0
0 0 0 0 0 0 0 0 0 0 0 0 0 1 0 0 0 0 0 0 0 0 0 0 0 0 0 0 0 0 0 0 0 0 0 0 0 0 0 0 0 0 0 0 0
1 0 0 0 0 0 0 0 0 0 0 0 3 3 0 0 0 0 0 0 0 0 0 0 0 0 0 0 0 0 0 0 0 0 0 0 0 0 0 0 0 0 0 0 0
0 0 0 0 0 0 0 0 0 0 0 0 0 0 0 0 0 0 0 0 0 0 0 0 0 0 0 0 0 0 0 0 0 0 0 0 0 0 0 0 0 0 0 0 0
0 0 0 0 0 0 0 0 0 0 0 0 0 0 0 0 0 0 0 0 0 0 0 0 0 0 0 0 0 0 0 0 0 0 0 0 0 0 0 0 0 0 0 0 0
0 0 0 0 0 0 0 0 0 0 0 0 0 0 0 0 0 0 0 0 0 0 0 0 0 0 0 0 0 0 0 0 0 0 0 0 0 0 0 0 0 0 0 0 0
0 0 0 0 0 0 0 0 0 0 0 0 0 0 0 0 0 0 0 0 0 0 0 0 0 0 0 0 0 0 0 0 0 0 0 0 0 0 0 0 0 0 0 0 0
0 0 0 0 0 0 0 0 0 0 0 0 0 0 0 0 0 0 0 0 0 0 0 0 0 0 0 0 0 0 0 0 0 0 0 0 0 0 0 0 0 0 0 0 0
0 0 0 0 0 0 0 0 0 0 0 0 0 0 0 0 0 0 0 0 0 0 0 0 0 0 0 0 0 0 0 0 0 0 0 0 0 0 0 0 0 0 0 0 40
0 0 0 0 0 0 0 0 0 0 0 0 0 0 0 0 0 0 0 0 0 0 0 0 0 0 0 0 0 0 0 0 0 0 0 0 0 0 0 0 0 86 110 120 83
0 0 0 0 0 0 0 0 0 0 0 0 0 0 0 0 0 0 0 0 0 0 0 0 0 0 0 0 0 0 0 0 0 0 0 0 0 0 0 0 113 112 39 42 23
0 0 0 0 0 0 0 0 0 0 0 0 0 0 0 0 0 0 0 0 0 0 0 0 0 0 0 0 0 0 1 0 0 0 0 0 0 0 6 62 120 48 13 1 10
0 0 0 0 0 0 0 0 0 0 0 0 0 0 0 0 0 0 0 0 0 0 0 0 0 0 0 0 0 0 0 1 0 0 0 1 0 0 28 2 8 9 0 0 0
0 0 0 0 0 0 0 0 0 0 0 0 0 0 0 0 0 0 0 0 4 0 0 0 0 0 0 0 0 0 0 12 3 0 0 0 0 1 3 1 0 0 0 0 0
0 0 0 0 0 0 0 0 0 0 0 0 0 0 0 0 0 0 0 0 10 0 0 0 0 0 0 0 0 3 0 0 15 18 0 0 0 58 9 1 4 0 0 0 0
0 0 0 0 0 0 0 0 0 0 0 0 0 0 0 0 0 0 0 0 0 0 0 0 1 0 0 0 0 33 4 11 25 10 1 0 11 5 0 5 6 0 0 0 0
0 0 0 0 0 0 0 0 0 0 0 0 0 0 0 0 0 0 0 1 0 0 0 0 0 0 0 0 0 1 0 0 13 0 12 2 0 0 0 0 12 0 0 0 0
0 0 0 0 0 0 0 0 0 0 0 0 0 0 0 0 0 0 0 15 5 1 0 0 0 0 0 0 0 10 0 1 1 7 0 0 1 0 0 3 0 0 0 0 0
0 0 0 0 0 0 0 0 0 0 0 0 0 0 0 0 0 1 0 3 0 11 3 0 0 0 0 0 0 0 0 0 0 0 0 11 0 5 5 4 1 0 0 1 1
0 0 0 0 0 0 0 0 0 0 0 0 0 0 0 0 0 0 0 0 0 4 9 0 0 0 0 0 0 0 0 0 0 0 2 0 0 1 3 5 4 2 1 5 4
0 0 0 0 0 0 0 0 0 0 0 0 0 0 0 0 0 0 0 0 0 0 0 3 5 0 0 0 0 0 0 0 0 0 1 0 0 3 3 2 2 2 3 6 8
0 0 0 0 0 0 0 0 0 0 0 0 0 0 0 0 0 0 0 0 0 0 0 0 0 0 0 0 0 0 2 0 0 2 0 0 2 0 0 1 3 5 5 5 5
CIN
0 0 0 0 0 -0 -0 0 0 0 0 0 0 0 0 0 0 0 0 0 0 0 0 0 0 0 0 0 0 0 0 0 0 0 0 0 0 0 0 0 0 0 0 0 0
0 0 0 -0 -0 0 0 0 0 0 0 0 0 0 0 0 0 0 0 0 0 0 0 0 0 0 0 0 0 0 0 0 0 0 0 0 0 0 0 0 0 0 0 0 0
0 0 0 0 0 0 0 0 0 0 0 0 0 0 0 0 0 0 0 0 0 0 0 0 0 0 0 0 0 0 0 0 0 0 0 0 0 0 0 0 0 0 0 0 0
0 0 0 -0 0 0 0 0 0 0 0 0 0 0 0 0 0 0 0 0 0 0 0 0 0 0 0 0 0 0 0 0 0 0 0 0 0 0 0 0 0 0 0 0 0
0 0 0 0 0 0 0 0 0 0 0 0 0 0 0 0 0 0 0 0 0 0 0 0 0 0 0 0 0 0 0 0 0 0 0 0 0 0 0 0 0 0 0 0 0
0 0 0 0 0 0 0 0 0 0 0 0 0 -0 0 0 0 0 0 0 0 0 0 0 0 0 0 0 0 0 0 0 0 0 0 0 0 0 0 0 0 0 0 0 0
0 0 0 0 0 0 0 0 0 0 0 0 0 0 0 0 0 0 0 0 0 0 0 0 0 0 0 0 0 0 0 0 0 0 0 0 0 0 0 0 0 0 0 0 0
-0 0 0 0 0 0 0 0 0 0 0 0 0 -0 0 0 0 0 0 0 0 0 0 0 0 0 0 0 0 0 0 0 0 0 0 0 0 0 0 0 0 0 0 0 0
0 0 0 0 0 0 0 0 0 0 0 0 0 0 0 0 0 0 0 0 0 0 0 0 0 0 0 0 0 0 0 0 0 0 0 0 0 0 0 0 0 0 0 0 0
0 0 0 0 0 0 0 0 0 0 0 0 0 0 0 0 0 0 0 0 0 0 0 0 0 0 0 0 0 0 0 0 0 0 0 0 0 0 0 0 0 0 0 0 0
0 0 0 0 0 0 0 0 0 0 0 0 0 0 0 0 0 0 0 0 0 0 0 0 0 0 0 0 0 0 0 0 0 0 0 0 0 0 0 0 0 0 0 0 0
0 0 0 0 0 0 0 0 0 0 0 0 0 0 0 0 0 0 0 0 0 0 0 0 0 0 0 0 0 0 0 0 0 0 0 0 0 0 0 0 0 0 0 0 0
0 0 0 0 0 0 0 0 0 0 0 0 0 0 0 0 0 0 0 0 0 0 0 0 0 0 0 0 0 0 0 0 0 0 0 0 0 0 0 0 0 0 0 0 0
0 0 0 0 0 0 0 0 0 0 0 0 0 0 0 0 0 0 0 0 0 0 0 0 0 0 0 0 0 0 0 0 0 0 0 0 0 0 0 0 0 0 0 0 -84
0 0 0 0 0 0 0 0 0 0 0 0 0 0 0 0 0 0 0 0 0 0 0 0 0 0 0 0 0 0 -0 0 0 0 0 0 0 0 0 0 0 -42 -67 -95 -113
0 0 0 0 0 0 0 0 0 0 0 0 0 0 0 0 0 0 0 0 0 0 0 0 0 0 0 0 0 0 0 0 0 0 0 0 0 0 0 0 -15 -66 -100 -153 -169
0 0 0 0 0 0 0 0 0 0 0 0 0 0 0 0 0 0 0 0 0 0 0 0 0 0 0 0 0 0 -0 0 0 0 0 0 0 0 -36 -27 -44 -65 -115 -17 -253
0 0 0 0 0 0 0 0 0 -1 0 0 0 0 0 0 0 0 0 0 0 0 0 0 0 0 -38 0 0 0 -0 -8 0 0 0 -5 0 0 -56 -109 -2 -73 0 0 0
0 0 0 0 0 0 0 0 0 0 0 0 0 0 0 0 0 0 0 0 -13 0 0 -0 0 0 0 0 0 0 0 -45 -19 0 0 0 0 -25 -137 -18 -0 0 0 0 0
0 0 0 0 0 0 0 0 0 0 0 0 0 0 0 0 0 0 0 0 -8 0 0 0 0 0 0 0 0 -11 0 0 -17 -5 0 0 0 -14 -37 0 -1 0 0 0 0
0 0 0 0 0 0 0 0 0 0 0 0 0 0 0 0 0 0 0 0 0 0 0 0 -1 0 0 0 0 -26 -18 -5 -5 -8 -1 0 -8 0 0 0 -1 0 0 0 0
0 0 0 0 0 0 0 0 0 0 0 0 0 0 0 0 0 0 0 -4 0 -7 0 0 0 0 0 0 0 -0 -2 -1 -10 -5 -11 -3 -0 0 0 -0 -1 0 0 0 0
0 0 0 0 0 0 0 0 0 0 0 0 0 0 0 0 0 0 0 -28 -20 -5 0 0 0 0 0 0 0 -20 0 0 0 -10 0 0 -3 0 0 0 -0 0 0 0 0
0 0 0 0 0 0 0 0 0 0 0 0 0 0 0 0 -3 -1 0 -7 0 -14 -32 0 0 0 0 0 0 0 0 0 0 0 0 -4 0 0 0 0 0 0 0 0 0
0 0 0 0 0 0 0 0 0 0 0 0 0 -0 -4 0 0 0 0 0 0 -12 -19 0 0 0 0 0 -1 -0 0 0 0 0 -2 0 0 0 0 0 0 0 0 0 0
0 0 0 0 0 0 0 0 0 0 0 0 0 0 0 0 0 0 0 0 0 0 0 -24 -1 0 0 0 0 0 0 0 0 0 0 0 0 0 0 0 0 0 0 0 0
0 0 0 0 0 0 0 0 0 0 0 0 0 0 0 0 0 0 0 0 0 0 0 0 0 0 0 0 0 0 -95 0 0 0 0 0 0 0 0 0 0 0 0 0 0
Wind_Speed
28 29 30 30 31 32 32 33 34 35 35 35 36 37 37 38 40 36 26 18 15 9 15 20 22 18 16 18 18 15 21 23 22 23 28 35 36 35 35 28 27 23 22 16 10
28 29 30 31 32 33 33 33 34 35 35 36 36 36 36 38 40 33 18 14 11 12 16 16 17 13 14 18 18 17 23 24 22 25 28 32 37 38 37 31 28 26 27 19 13
28 29 30 31 33 33 34 34 35 35 36 36 36 35 36 37 33 24 17 12 12 12 14 15 14 15 16 16 18 22 26 26 26 24 28 40 41 35 38 35 30 27 27 29 20
28 28 29 30 32 34 34 35 36 36 37 36 36 35 35 28 31 21 17 17 16 14 16 16 16 19 24 25 20 24 25 23 25 27 33 38 39 41 37 36 36 36 32 30 30
27 28 30 30 32 33 35 36 36 37 37 36 34 33 30 28 30 24 18 17 17 15 16 17 20 20 25 25 27 29 29 29 30 30 33 34 40 40 38 39 40 42 42 42 37
26 28 30 31 33 35 36 36 36 36 36 34 32 28 26 33 22 12 16 15 15 15 18 16 21 21 27 27 29 31 34 35 33 35 35 37 38 38 38 39 43 44 46 47 45
24 26 27 30 31 35 36 37 37 37 35 32 28 21 27 27 22 25 22 18 18 21 24 23 22 27 29 32 29 31 37 36 34 35 37 38 50 42 39 39 41 41 43 43 43
21 23 26 28 30 33 35 36 36 34 32 28 22 20 28 23 22 24 25 25 18 19 22 24 25 27 26 27 31 31 32 34 30 30 33 32 52 38 34 31 31 32 35 40 39
23 23 23 26 29 31 34 35 33 31 26 22 20 19 28 23 20 19 15 18 20 20 16 19 22 24 24 26 30 27 31 35 36 26 28 28 40 36 26 29 30 31 35 32 35
23 24 25 28 31 31 32 33 26 23 19 16 19 22 22 19 21 19 17 20 20 21 16 18 20 21 22 22 27 26 28 30 35 29 31 37 40 41 35 29 31 35 41 42 42
22 23 25 27 30 30 27 21 20 21 16 15 13 18 24 28 28 24 21 20 21 21 21 16 18 20 20 21 25 28 31 35 33 34 40 41 42 37 35 38 42 42 42 42 45
23 24 23 26 28 25 21 18 16 18 25 16 17 21 27 23 23 22 14 14 16 17 17 18 20 18 19 22 27 26 27 31 35 32 32 38 44 37 38 41 39 38 41 42 43
24 24 25 23 25 20 14 17 17 18 21 22 13 13 17 11 19 16 14 12 17 19 18 22 22 19 20 24 26 25 29 32 35 34 32 36 41 42 39 37 41 45 39 35 33
23 21 22 21 16 17 15 15 18 17 25 20 13 15 13 13 19 10 11 16 17 19 19 23 23 25 29 29 22 30 25 32 35 35 39 30 48 41 39 41 35 33 34 22 19
19 20 18 14 14 13 14 17 17 16 30 8 10 10 12 12 22 10 10 16 21 22 22 24 29 29 29 28 27 31 25 29 32 36 39 37 41 48 34 34 35 21 16 12 15
15 14 17 11 12 15 16 16 15 18 27 13 12 13 15 16 14 13 14 16 19 25 26 29 28 27 26 26 23 27 32 31 30 32 36 41 37 46 28 31 18 16 18 17 18
11 15 14 15 11 14 13 13 17 20 10 15 15 16 19 22 23 27 20 26 25 33 31 30 28 22 21 27 25 22 26 32 32 26 31 34 35 13 31 20 13 17 17 19 19
13 15 12 12 13 13 11 12 17 18 14 16 18 23 24 23 22 21 25 29 29 30 34 35 37 25 23 23 24 19 19 21 27 24 33 31 33 21 22 25 26 11 14 19 23
14 11 9 7 10 11 11 13 16 17 18 21 23 23 23 18 21 23 24 28 22 25 29 33 33 33 32 30 20 17 16 16 25 40 40 38 37 32 28 25 25 7 15 20 23
9 7 6 7 9 10 12 14 13 15 18 21 22 21 23 26 25 28 25 24 22 25 28 28 40 29 31 30 22 24 17 18 20 28 32 32 32 25 22 23 19 16 17 20 22
8 9 8 8 9 11 13 14 14 15 18 20 21 23 24 27 27 28 25 29 26 29 29 31 30 36 35 26 31 29 26 17 24 34 33 30 23 19 22 19 21 15 17 21 22
9 8 8 9 10 11 12 15 15 16 17 18 18 19 21 25 26 26 29 25 25 26 29 25 28 35 41 43 43 35 35 29 30 34 30 35 35 23 22 25 17 14 16 21 23
7 8 10 10 11 12 12 13 16 17 18 19 19 20 21 23 26 23 24 18 22 24 24 25 25 36 41 31 24 25 31 33 34 31 39 36 26 21 23 18 15 18 20 22 24
10 8 9 10 13 13 12 15 14 15 17 17 19 21 22 23 23 24 26 22 25 24 20 20 23 25 34 33 34 39 37 34 33 33 34 32 22 19 17 16 18 21 22 24 25
10 10 10 10 10 11 14 14 15 18 17 19 19 22 22 23 25 27 27 28 28 21 19 19 26 28 35 38 37 39 37 37 35 39 33 25 18 15 17 17 20 23 24 26 26
8 9 10 9 12 11 13 13 17 17 19 22 23 25 25 26 27 31 29 28 25 24 23 16 24 34 35 34 37 38 36 29 31 25 24 19 14 13 16 18 22 23 25 25 25
9 12 10 9 10 12 14 16 18 18 18 20 23 25 26 26 27 28 32 31 16 24 17 15 33 31 31 27 30 33 33 30 20 12 12 11 11 15 18 19 22 22 23 24 24
Wind_Direction
313 313 313 313 315 316 316 315 311 313 312 313 314 313 315 315 312 315 316 318 330 326 326 316 309 307 307 295 289 279 277 273 278 283 292 292 293 295 303 293 288 293 297 303 302
310 310 311 310 312 312 313 313 312 312 313 314 316 318 318 318 313 315 326 328 322 327 322 314 310 308 299 298 290 274 275 274 283 287 291 294 296 299 297 298 296 291 289 299 293
308 310 309 309 310 311 311 311 311 312 313 314 315 318 319 320 319 322 345 350 336 331 325 319 308 303 286 292 286 281 273 289 288 286 287 292 290 296 296 291 295 299 295 284 283
305 307 310 310 310 309 310 311 311 311 311 312 313 315 317 322 312 326 343 340 336 332 321 319 309 298 295 285 280 281 284 280 287 287 288 287 290 289 293 292 291 290 293 291 285
303 304 305 308 309 311 309 310 310 311 312 312 314 316 318 312 303 313 327 332 334 330 317 307 302 301 292 298 290 284 288 289 288 286 287 287 287 289 287 291 289 286 284 283 285
301 302 303 305 306 306 308 310 312 311 311 313 314 318 313 305 318 322 327 328 326 321 315 311 304 301 296 296 291 292 294 293 295 297 296 293 291 292 291 291 287 284 281 278 278
303 303 306 305 307 306 308 308 308 308 309 312 315 315 307 301 313 309 317 316 316 308 305 304 306 302 301 298 300 297 297 295 296 297 295 298 286 287 293 291 288 286 282 280 277
309 308 307 308 309 309 308 308 307 308 309 312 317 314 306 313 316 309 308 306 308 307 303 304 305 305 302 302 299 302 300 297 303 300 297 292 285 291 294 293 287 285 286 282 277
303 310 314 312 312 311 309 308 307 309 312 314 315 313 309 322 317 317 321 311 313 311 308 308 306 301 303 300 296 298 295 297 301 302 298 292 291 297 303 297 295 295 294 294 285
300 302 308 311 312 315 313 307 312 317 319 319 310 313 310 319 321 319 326 318 317 317 314 312 307 300 299 294 293 302 300 301 301 311 309 302 300 301 307 295 290 293 288 282 278
297 302 308 311 309 313 325 325 318 314 310 307 317 307 311 310 311 307 308 306 309 307 303 308 304 298 297 291 294 299 301 302 306 308 307 301 301 303 302 299 294 289 287 280 276
294 303 309 310 310 315 322 322 328 323 311 301 295 301 305 310 313 314 330 310 302 302 310 303 293 301 302 300 297 297 299 302 307 312 311 307 300 302 298 296 297 293 288 280 276
292 298 303 309 309 313 322 324 334 332 316 314 305 302 316 322 314 323 341 328 311 307 308 299 303 306 297 300 301 301 303 304 304 310 309 308 302 302 298 296 297 290 291 278 275
293 299 299 311 310 312 314 329 331 332 310 313 314 317 320 326 317 323 336 333 326 312 310 309 308 301 299 298 300 298 310 308 309 307 305 313 301 300 301 294 299 292 300 292 286
293 293 299 301 308 316 319 321 326 330 298 324 333 351 336 318 321 323 340 333 320 314 311 306 308 307 299 301 299 300 308 306 307 307 308 303 299 285 304 295 289 308 317 311 303
289 295 294 298 297 309 321 323 325 309 295 316 328 328 323 322 318 335 325 324 324 315 308 304 307 304 304 307 306 308 306 305 306 304 297 297 296 272 300 293 303 307 302 318 307
292 287 282 294 302 313 322 324 306 299 316 313 320 323 318 316 315 313 312 314 312 310 307 304 304 303 303 300 304 309 312 306 305 295 293 297 286 274 306 310 299 288 295 298 305
287 284 285 292 305 313 329 318 299 317 327 324 321 315 315 317 317 319 318 314 316 315 308 304 302 316 325 294 299 296 299 300 305 302 290 288 274 314 314 284 287 306 298 296 304
277 279 292 307 313 315 313 310 310 315 317 317 319 319 319 330 326 325 324 320 326 329 312 310 302 307 311 318 308 294 279 303 291 280 271 264 265 289 281 278 283 350 329 321 315
269 291 302 312 319 320 312 309 324 328 324 322 315 322 314 319 324 323 322 330 330 335 329 316 304 309 306 313 304 295 295 297 294 288 268 266 259 280 280 278 264 331 343 325 321
272 280 299 314 319 315 309 321 331 339 333 326 321 318 320 319 319 319 318 323 329 323 326 319 307 301 300 295 293 292 277 287 286 265 260 265 274 291 298 298 319 326 343 340 327
285 287 306 304 310 314 321 322 325 331 339 335 336 331 328 329 325 324 320 324 336 333 323 323 313 303 291 279 269 270 262 276 274 260 261 257 257 288 294 262 235 347 347 344 337
294 306 291 307 306 315 328 332 330 332 336 336 333 339 338 332 327 331 329 342 342 334 331 328 318 308 291 279 271 266 263 276 276 263 248 252 265 277 291 357 17 353 344 339 335
283 296 307 316 319 323 330 330 341 349 339 343 338 336 333 334 334 331 329 336 334 336 340 338 323 310 279 266 270 256 254 263 266 256 253 252 266 290 340 337 341 345 340 339 338
293 298 311 314 328 344 334 338 337 337 350 344 341 342 339 334 331 326 326 324 323 332 337 338 319 304 269 261 259 250 255 256 259 252 251 262 281 292 316 328 328 334 335 333 330
312 318 331 345 334 347 342 343 343 350 345 336 335 334 336 331 330 326 326 322 319 316 321 335 314 288 269 259 247 240 248 252 262 264 259 258 281 332 322 326 333 332 333 334 328
311 302 335 350 356 343 341 347 349 351 350 350 341 336 332 331 331 326 317 310 304 307 311 313 288 273 258 250 254 245 239 243 269 287 255 263 298 324 325 328 329 327 335 339 336